Location: Banksville Park
(38.5557°N, 75.1182°W)
Time: 22:12:52
(UTC+00:00)

X-37B - Pass Details

Date: 19 September 2020
Orbit: 382 x 392 km, 45.0° (Epoch: 15 October)

Event Time Altitude Azimuth Distance (km) Brightness Sun altitude
Exits shadow 10:10:30 - 302° (WNW) 1,765 3.5 -7.7°
Reaches altitude 10° 10:11:27 10° 307° (NW) 1,403 3.0 -7.6°
Maximum altitude 10:14:22 34° 15° (NNE) 656 2.0 -7.0°
Drops below altitude 10° 10:17:18 10° 83° (E) 1,404 5.3 -6.4°
Sets 10:19:29 0° 93° (E) 2,259 6.8 -6.0°
